sat.trackr.live / text

‹ back to catalog

STARLINK-32573

NORAD 61725 · 2024-196U

PAYLOAD ACTIVE UNKNOWN

§ Identity

Operator
Country
US
Launch date
2024-10-30
Launch site
AFETR
Launch vehicle
Mass (kg)
RCS (m²)

Purposes: comms

External: N2YO · Heavens-Above · Gunter

§ Orbital elements

Epoch: 2026-05-25T04:00:32.168736Z

Period
94.11 min
Inclination
53.1608°
Eccentricity
0.0001291
Mean motion
15.30196198 rev/d
Perigee alt
474.3 km
Apogee alt
476.1 km
Semi-major
6,853.4 km
B*
3.2889e-5
RAAN
106.2481°
Arg perigee
85.8748°
Mean anomaly
274.2400°
Rev number
8,886

§ Raw data

STARLINK-325731 61725U 24196U   26145.16703899  .00000615  00000+0  32889-4 0  99992 61725  53.1608 106.2481 0001291  85.8748 274.2400 15.30196198 88863

JSON: /api/v1/satellites/61725 · /tle

For live sub-satellite position, see the globe view (requires WebGL).

§ Visibility from observer

Set your observer location to see the next 7 days of passes ≥ 10°. The values pass through the URL so the page stays shareable.

No JS? Fill the form by hand. The geolocation button needs JavaScript.